www.pogodaiklimat.ru
ПОГОДА в Аннаполисе
Время
и дата
08:54 19.05
09:37 19.05
09:54 19.05
10:54 19.05
11:47 19.05
11:54 19.05
12:54 19.05
13:54 19.05
14:54 19.05
15:54 19.05
16:54 19.05
17:54 19.05
18:54 19.05
19:54 19.05
20:54 19.05
21:54 19.05
22:54 19.05
23:35 19.05
23:54 19.05
00:47 20.05
00:54 20.05
01:54 20.05
02:54 20.05
03:54 20.05
04:17 20.05
04:54 20.05
05:54 20.05
06:54 20.05
07:54 20.05
08:54 20.05
09:54 20.05
10:54 20.05
11:54 20.05
12:54 20.05
13:12 20.05
13:54 20.05
14:54 20.05
15:54 20.05
16:54 20.05
17:54 20.05
18:54 20.05
19:54 20.05
20:54 20.05
21:54 20.05
22:54 20.05
23:54 20.05
00:54 21.05
01:21 21.05
Ветер
(напр.,м/с)
Видим. Явления Облачность Т
(С)
Тd
(С)
f
(%)
Тe
(С)
Тes
(С)
Комфортность P
(гПа)
Po
(гПа)
Тmin
(С)
Tmax
(С)
R
(мм)
R24
(мм)
S
(см)
СЗ 2 14 км 10/10 450 м +18.9 +16.1 84 +21 +21 комфорт 1016.1 1015.7
З 2 16 км 10/10 480 м +18.9 +16.1 84 +21 +21 комфорт 1016.0
СЗ 2 16 км 10/10 570 м +19.4 +16.7 84 +22 +22 комфорт 1016.3 1016.0
СЗ 2 16 км 10/10 570 м +20.6 +16.1 75 +24 +24 комфорт 1016.3 1016.0
СВ 2 16 км 10/10 870 м +20.6 +15.6 73 +24 +24 комфорт 1016.0
С 2 16 км 10/10 870 м +21.1 +15.6 71 +24 +24 комфорт 1016.2 1016.0
штиль 0 16 км 10/10 840 м +21.7 +16.1 70 +25 +25 комфорт 1015.8 1015.3 +16.7 +21.7
СЗ 2 16 км 8/8 960 м +22.2 +16.7 71 +27 +30 душно 1015.4 1015.0
СЗ 3 16 км 10/10 990 м +22.2 +16.7 71 +27 +27 душно 1014.9 1014.7
СЗ 3 16 км 10/0 2100 m
[Ac]
+22.8 +16.1 66 +27 +30 душно 1015.0 1014.7
СЗ 2 16 км 10/0 2100 m
[Ac]
+22.2 +16.1 68 +26 +29 душно 1014.8 1014.3
штиль 0 16 км ясно +23.3 +16.1 64 +28 +33 душно 1014.6 1014.3
штиль 0 16 км ясно +21.1 +17.8 81 +25 +27 комфорт 1015.0 1014.7 +21.1 +23.9
штиль 0 16 км ясно +19.4 +17.2 87 +21 +21 комфорт 1015.4 1015.0
штиль 0 16 км 2/2 1800 м +18.3 +17.2 93 +19 +19 1016.0 1015.7
штиль 0 16 км ясно +18.3 +17.2 93 +19 +19 1016.4 1016.0
ЮВ 6 16 км ясно +18.9 +16.7 87 +20 +20 1016.6 1016.4
ЮВ 5 16 км 8/8 420 м +17.8 +15.0 84 +17 +17 1016.7
ЮВ 3 16 км 10/10 420 м +17.8 +15.6 87 +18 +18 1016.9 1016.4
ЮВ 5 16 км 10/10 450 м +17.8 +15.0 84 +17 +17 1016.7
ЮВ 5 16 км 10/10 510 м +17.8 +15.0 84 +17 +17 1016.9 1016.7 +17.8 +21.1
ЮВ 4 16 км 5/5 630 м +16.7 +13.9 84 +16 +16 1016.4 1016.0
В 3 16 км ясно +16.7 +14.4 86 +16 +16 1016.3 1016.0
В 3 16 км ясно +16.1 +14.4 90 +16 +16 1016.1 1015.7
В 3 16 км 8/8 420 м +16.1 +14.4 90 +16 +16 1016.0
В 4 16 км 10/10 390 м +16.1 +13.9 87 +15 +15 1016.8 1016.4
ЮВ 3 16 км 10/10 780 м +16.1 +13.9 87 +16 +16 1017.3 1017.0
СВ 2 16 км 10/10 750 м +16.7 +13.9 84 +17 +17 1018.6 1018.4 +15.6 +17.8
В 2 16 км 10/10 750 м +17.2 +13.3 78 +18 +18 1019.1 1018.7
ЮВ 3 16 км 10/10 720 м +17.8 +15.0 84 +18 +18 1018.8 1018.4
ЮВ 3 16 км 10/10 690 м +17.8 +14.4 80 +18 +18 1018.8 1018.4
ЮВ 3 16 км 10/10 660 м +18.3 +15.0 81 +19 +19 1018.7 1018.4
ЮВ 4 16 км 10/10 720 м +18.9 +15.6 81 +20 +20 1018.2 1017.7
ЮВ 4 16 км 8/8 750 м +20.0 +16.1 78 +23 +25 комфорт 1017.9 1017.4 +16.7 +20.0
ЮВ 4 16 км 5/5 780 м +20.6 +16.7 78 +24 +31 комфорт 1017.7
ЮВ 5 16 км ясно +20.6 +17.2 81 +24 +34 комфорт 1017.5 1017.0
ЮВ 4 16 км ясно +21.1 +16.7 76 +25 +36 комфорт 1016.9 1016.7
ЮВ 5 16 км ясно +21.1 +17.2 78 +25 +31 комфорт 1016.6 1016.0
ЮВ 5 16 км ясно +21.1 +16.7 76 +25 +29 комфорт 1016.1 1015.7
ЮВ 2 16 км ясно +21.1 +16.1 73 +24 +28 комфорт 1015.9 1015.7
ЮВ 2 16 км ясно +21.1 +16.7 76 +25 +26 комфорт 1016.3 1016.0 +20.0 +22.2
Ю 2 16 км ясно +20.0 +16.7 81 +23 +23 комфорт 1016.3 1016.0
штиль 0 16 км ясно +18.9 +16.1 84 +20 +20 1016.8 1016.4
штиль 0 16 км ясно +18.3 +16.7 90 +19 +19 1016.8 1016.4
штиль 0 16 км ясно +18.3 +16.7 90 +19 +19 1016.3 1016.0
штиль 0 16 км ясно +17.2 +16.7 97 +17 +17 1016.1 1015.7
штиль 0 16 км ясно +17.8 +16.7 93 +18 +18 1016.2 1015.7 +17.2 +21.1
штиль 0 16 км 8/8 300 м +17.8 +16.7 93 +18 +18 1016.0
Местоположение метеостанции United States Naval Academy: широта 38.9913 долгота -76.4891 высота над уровнем моря 1 м.
В архиве по умолчанию представлена погода в Аннаполисе за последние 1-2 суток. Обновление информации о фактической погоде в базе происходит ежечасно! Архивные данные за месяц целиком и за предыдущие месяцы Вы можете получить, выбрав интересующий диапазон дат из раскрывающегося списка и нажав кнопку "Ввод!".
Внимание! Архив погоды МЕТАР в базе сайта по станциям, не включенным в климатический монитор, хранится не более 60 дней. Нет смысла пытаться выбрать более раннюю дату.
*Определитесь, кто Вы:
Внимание! Время в таблицах - местное (без учета летнего времени). Для получения всемирного времени необходимо вычесть поправку, которая равна -5 ч.
Смотрите также архив погоды в соседних городах и на ближайших метеорологических станциях:
Партнеры нашего сайта:      
Пояснения к столбцам:
  • Ветер - указаны скорость ветра в м/с - средняя за 10 мин, порывы в срок и между сроками (в фигурных скобках) и направление, откуда дует ветер: С - северный,
  • СВ - северо-восточный, В - восточный, ЮВ - юго-восточный, Ю - южный, ЮЗ - юго-западный, З - западный, СЗ - северо-западный.
  • Видимость - горизонтальная дальность видимости в метрах или километрах. При видимости от 1 до 10 км при отсутствии осадков обычно наблюдается дымка, при ухудшении видимости до 1 км и менее - туман. В сухую погоду видимость может ухудшаться дымом, пылью или мглою.
  • Явления - указаны атмосферные явления, наблюдавшиеся в срок или в последний час перед сроком; фигурными скобками обозначены явления, наблюдавшиеся между сроками (за 1-3 часа до срока); квадратными скобками обозначены град или гололедные отложения с указанием их диаметра в мм.
  • Облачность - указаны через наклонную черту общая и нижняя облачность в баллах и высота нижней границы облаков в метрах; квадратными скобками обозначены формы облаков: Ci - перистые, Cs - перисто-слоистые, Cc - перисто-кучевые, Ac - высококучевые, As - высокослоистые, Sc - слоисто-кучевые, Ns - слоисто-дождевые, Cu - кучевые, Cb - кучево-дождевые. Подробнее классификацию облаков см. в Атласе облаков (PDF).
  • T - Температура воздуха - температура, измеренная на высоте 2 м над землей.
  • Td - Температура точки росы - температура, при понижении до которой содержащийся в воздухе водяной пар достигнет насыщения.
  • f - Относительная влажность воздуха - влажноcть воздуха, измеренная на высоте 2 м над землей.
  • Te - Эффективная температура - температура, которую ощущает одетый по сезону человек в тени. Характеристика душности погоды. При расчете учитывается влияние влажности воздуха и скорости ветра на теплоощущения человека.
  • Tes - Эффективная температура на солнце - температура, которую ощущает человек, с поправкой на солнечный нагрев. Характеристика знойности погоды. Зависит от высоты солнца над горизонтом, облачности и скорости ветра. Ночью, в пасмурную погоду, а также при ветре 12 м/с и более поправка равна нулю.
  • P - Атмосферное давление - приведенное к уровню моря атмосферное давление.
  • Po - Атмосферное давление - измеренное на уровне метеостанции атмосферное давление.
  • Tmin - Минимальная температура - минимум температуры воздуха на высоте 2 м над землей.
  • Tmax - Максимальная температура - максимум температуры воздуха на высоте 2 м над землей.
  • R - Количество осадков - Количество выпавших осадков за период времени, мм. При наведении курсора мыши на число - период времени, за который выпало указанное количество осадков.
  • R24 - Количество осадков - Количество выпавших осадков за 24 часа, мм.
  • S - Снежный покров - Высота снежного покрова, см. При наведении курсора мыши на число - состояние снежного покрова и степень покрытия местности в баллах.